Regional Weather Roundup
Issued by NWS Goodland, KS

Home | Current Version | Previous Version | Text Only | Print | Product List | Glossary Off
Versions: 1 2 3 4 5 6 7 8 9 10 11 12 13 14 15 16 17 18 19 20 21 22 23 24 25 26 27 28 29 30 31 32 33 34 35 36 37 38 39 40 41 42 43 44 45 46 47 48 49 50

059
ASUS43 KGLD 250459
RWRGLD

GOODLAND FORECAST AREA HOURLY WEATHER ROUNDUP
NATIONAL WEATHER SERVICE GOODLAND KS
1100 PM MDT WED MAY 24 2017

...OFFICIAL OBSERVATIONS...

CITY           SKY/WX    TMP DP  RH WIND       PRES   REMARKS
GOODLAND KS    CLEAR     57  46  66 S18       29.59R
HILL CITY KS   CLEAR     54  47  77 SE8       29.63S
IMPERIAL NEB   CLEAR     57  45  64 SE16      29.54S
MCCOOK NEB     CLEAR     56  44  64 SE14      29.58S
AKRON CO       CLEAR     65  41  41 S20G30    29.57F
BURLINGTON CO  CLEAR     60  46  59 S17       29.61S
LIMON CO       CLEAR     52  42  69 VRB3      29.66F
$$

...UNOFFICIAL OBSERVATIONS...

CITY           SKY/WX    TMP DP  RH WIND       PRES   REMARKS
LENORA KS        N/A     55  32  41 MISG        N/A
NORTON KS      CLEAR     54  43  66 SE10      29.60F
SHARON SPRINGS   N/A     58  48  69 SE14G21     N/A
TRENTON NEB      N/A     55  32  41 S9          N/A
KIT CARSON CO    N/A     62  45  53 MISG        N/A
YUMA CO        FAIR      61  36  39 S18       29.55F
$$




USA.gov is the U.S. government's official web portal to all federal, state and local government web resources and services.